DECAYED
Showing default

ASAP-S, 41461 (Decayed)

Orbit data source: Space-Track

ASAP-S, 41461 was a payload satellite owned by CNES (FR) in LEO that was launched on Mon, 25 Apr 2016 UTC launched from the French Guiana (FRGUI). Payloads include a variety of satellites, spacecraft, and rockets equipped with specific instruments for various scientific and technological missions. These include communications satellites like Starlink; space stations such as the ISS; scientific satellites like the Hubble; Earth observation satellites from companies like Planet Labs, Umbra, and HawkEye 360; GPS; miniature CubeSats for education and research; and military/defense satellites.

Not visible in the next 10 days
ASAP-S details
Identifier
41461, 2016-025F
Orbit
Decayed
Last TLE update5 months ago
Origin
Flag of FRCNES (FR)
ManufacturerAirbus Barajas
MissionDecayed spacecraft
Bus & MotorDISPENSER, Unknown motor
Mass400 kg wet, 400 kg dry
Launch date (UTC)
2016-04-25 (9 years ago)
Launch vehicleUnknown
Launch site
French Guiana (FRGUI)
Object type
Payload
Rocket body
Debris
Shape & HBRIrr, 1.2 m
Radar Cross Section1.920 m², Large (>1 m²)

Expand to show TLE details & history

TLE from 5 months ago
0 ASAP-S
1 41461U 16025F   24222.51379594  .21966838  34272-5  59042-3 0  9994
2 41461  98.1082 124.4953 0004177 195.9430 250.6342 16.45604282457370
Epoch: 2024-08-09T12:19Z
Definitive object data (Epoch: 2024-08-09T12:19:51.969Z)
Latitude81.23409°
Longitude-85.6806°
Altitude165.28 km
Speed7.813 km/s
True Right ascension03h 51m 05s
True Declination81° 10' 39"
Sunlit
Object was in daylight at TLE epoch
Visualization observer readout
Observer readout values are unavailable because the object's trajectory could not be propagated. This is usually caused when the trajectory data is faulty or the object's orbit has decayed.
Visualization observer readout
Observer readout values are unavailable because the object's trajectory could not be propagated. This is usually caused when the trajectory data is faulty or the object's orbit has decayed.
Orbital elements
Apogee altitude150.496 km
Perigee altitude145.045 km
Semi-major axis6,525.907 km
Eccentricity0.0004177
Inclination98.1082°
RAAN124.4953°
Arg. of periapsis195.943°
True anomaly250.58905°
Mean anomaly250.6342°
Eccentric anomaly250.61162°
Mean motion4.11701 °/min
BSTAR0.00059042
Orbital period87.44 mins
Loading maneuver chart data...
Loading historical data...
Loading historical data...
Loading historical data...
Loading historical data...
Loading historical data...
Loading historical data...
Loading historical data...

ASAP-S Visibility forecast

Observer location: undefined°, undefined

This satellite is decayed
Span
Click to sort rows by Start time (UTC) header in descending order
Start Az.
Max El. time (UTC)
Max El. Az.
Max El.
End time (UTC)
End Az.
|